Terminal Aerodrome Forecast
Issued by NWS

Current Version | Previous Version | Text Only | Print | Product List | Glossary Off
Versions: 1 2 3 4 5 6 7 8 9 10 11 12 13 14 15 16 17 18 19 20 21 22 23 24 25 26 27 28 29 30 31 32

000
FTUS41 KRNK 301033 AAB
TAFLWB
TAF AMD
KLWB 301033Z 3011/3106 02003KT 5SM BR BKN150
     FM301300 24003KT P6SM SCT045 BKN110
     FM302100 22004KT 6SM -SHRA BKN050
     FM310200 17001KT 6SM BR OVC050=

USA.gov is the U.S. government's official web portal to all federal, state and local government web resources and services.